User: anonymous   Login
Location: Unspecified
(0.0000°N, 0.0000°E)
Time: 17:02:28
(UTC+00:00)
Language:

Diademe D-1C - Orbit

View from above orbital plane
View from above orbital plane
View from above satellite
View from above satellite

Ground track
Ground track

The orbit data is extracted from the following two-line orbital elements,

1  2674U 67011A   18174.93568348 +.00000191 +00000-0 +48656-4 0  9995
2  2674 039.9249 021.8340 0265165 034.6942 327.0821 14.54565806664023
Epoch (UTC): 23 June 2018 22:27:23
Eccentricity: 0.0265165
inclination: 39.9249°
perigee height: 523 km
apogee height: 899 km
right ascension of ascending node: 21.8340°
argument of perigee: 34.6942°
revolutions per day: 14.54565806
mean anomaly at epoch: 327.0821°
orbit number at epoch: 66402

The dashed part of the orbit path shows where the satellite is in the earth's shadow,  

DLR